Flag for Rwanda Weather past 2 weeks in Kigali, Rwanda

Now
77 °F

Scattered clouds.


Feels Like: 79 °F
Forecast: 60 / 78 °F
Wind: No wind

Location: Kigali Airport

Current Time: Oct 22, 2014 at 10:07:30 AM

Latest Report: Oct 22, 2014 at 9:30 AM


Visibility: N/A

Pressure: 30.18 "Hg

Humidity: 69%

Dew point: 66 °F

Location of KigaliLocation

Historic Weather in Kigali — Graph

°F

Kigali temperature yesterday

Maximum temperature yesterday: 77 °F (at 2:30 PM)
Minimum temperature yesterday: 57 °F (at 6:00 AM)
Average temperature yesterday: 67 °F

Past Weeks' High & Low Weather Summary

 TemperatureHumidityPressure
High86 °F (Oct 10, 2:30 PM)100% (Oct 8, 5:00 AM)30.24 "Hg (Oct 8, 5:00 AM)
Low34 °F (Oct 20, 10:00 AM)37% (Oct 11, 4:30 PM)29.98 "Hg (Oct 17, 3:00 PM)
Average71 °F77%30.10 "Hg
* Reported Oct 7 8:30 AM — Oct 22 8:30 AM, Kigali, Weather by CustomWeather, © 2014

Note: Actual official high and low records may vary slightly from our data, if they occured in-between our weather recording intervals... More about our weather records

Advertising

Kigali weather history for previous 24 hours

 ConditionsComfort  
Time TempWeatherWind HumidityBarometerVisibility
8:30 AM
Oct 22
73 °FBroken clouds.No wind74%30.21 "HgN/A
8:00 AM72 °FBroken clouds.3 mph83%30.21 "HgN/A
7:00 AM66 °FScattered clouds.6 mph100%30.18 "HgN/A
6:30 AM64 °FScattered clouds.No wind100%30.15 "HgN/A
6:00 AM64 °FScattered clouds.No wind100%30.15 "HgN/A
5:30 AM64 °FPassing clouds.No wind100%30.12 "HgN/A
5:00 AM66 °FPassing clouds.No wind100%30.12 "HgN/A
2:30 AM66 °FPassing clouds.5 mph100%30.12 "HgN/A
1:00 AM66 °FPassing clouds.No wind100%30.12 "HgN/A
12:30 AM66 °FPassing clouds.No wind100%30.12 "HgN/A
12:00 AM66 °FPassing clouds.No wind100%30.15 "HgN/A
11:30 PM
Oct 21
66 °FPassing clouds.No wind100%30.15 "HgN/A
11:00 PM68 °FPassing clouds.No wind94%30.18 "HgN/A
10:30 PM68 °FPassing clouds.No wind94%30.18 "HgN/A
10:00 PM68 °FPassing clouds.7 mph94%30.18 "HgN/A
9:30 PM68 °FPassing clouds.5 mph94%30.18 "HgN/A
9:00 PM68 °FPassing clouds.3 mph94%30.15 "HgN/A
8:30 PM68 °FMild.6 mph94%30.15 "HgN/A
8:00 PM68 °FMild.3 mph94%30.15 "HgN/A
7:30 PM70 °FMild.3 mph88%30.12 "HgN/A
7:00 PM70 °FMild.8 mph88%30.12 "HgN/A
6:30 PM72 °FMild.7 mph83%30.09 "HgN/A
6:00 PM72 °FMild.3 mph78%30.09 "HgN/A
5:30 PM73 °FMild.3 mph74%30.07 "HgN/A
5:00 PM73 °FMild.6 mph74%30.07 "HgN/A
4:30 PM77 °FWarm.8 mph69%30.07 "HgN/A
4:00 PM77 °FWarm.7 mph65%30.07 "HgN/A
3:30 PM77 °FWarm.7 mph65%30.07 "HgN/A
3:00 PM77 °FWarm.9 mph65%30.07 "HgN/A
2:30 PM77 °FWarm.7 mph69%30.07 "HgN/A
2:00 PM75 °FScattered clouds.5 mph69%30.09 "HgN/A
1:30 PM75 °FScattered clouds.6 mph69%30.09 "HgN/A
12:00 PM75 °FScattered clouds.6 mph69%30.18 "HgN/A
11:30 AM70 °FScattered clouds.8 mph88%30.21 "HgN/A
11:00 AM70 °FScattered clouds.8 mph88%30.21 "HgN/A
10:30 AM70 °FScattered clouds.10 mph83%30.21 "Hg5 mi
10:00 AM68 °FScattered clouds.10 mph88%30.21 "Hg5 mi
Weather by CustomWeather, © 2014

See weather overviewHow to use our weather pages